Time,TemperatureF,DewpointF,PressureIn,WindDirection,WindDirectionDegrees,WindSpeedMPH,WindSpeedGustMPH,Humidity,HourlyPrecipIn,Conditions,Clouds,dailyrainin,SoftwareType,DateUTC
2013-03-20 00:08:00,27.7,19.0,30.14,WNW,286,2.0,4.0,69,0.00,,,0.00,weatherlink.com 1.10,2013-03-20 05:08:00,
2013-03-20 00:23:00,27.3,19.0,30.13,WNW,286,1.0,6.0,70,0.00,,,0.00,weatherlink.com 1.10,2013-03-20 05:23:00,
2013-03-20 00:38:00,27.8,18.0,30.14,NW,314,4.0,9.0,68,0.00,,,0.00,weatherlink.com 1.10,2013-03-20 05:38:00,
2013-03-20 00:53:00,27.9,19.0,30.14,NW,306,9.0,12.0,69,0.00,,,0.00,weatherlink.com 1.10,2013-03-20 05:53:00,
2013-03-20 01:08:00,27.8,20.0,30.14,NW,309,6.0,12.0,72,0.00,,,0.00,weatherlink.com 1.10,2013-03-20 06:08:00,
2013-03-20 01:23:00,27.4,20.0,30.14,WNW,296,4.0,11.0,74,0.00,,,0.00,weatherlink.com 1.10,2013-03-20 06:23:00,
2013-03-20 01:38:00,27.0,21.0,30.14,WNW,291,3.0,7.0,77,0.00,,,0.00,weatherlink.com 1.10,2013-03-20 06:38:00,
2013-03-20 01:53:00,27.1,20.0,30.13,WNW,302,8.0,12.0,76,0.00,,,0.00,weatherlink.com 1.10,2013-03-20 06:53:00,
2013-03-20 02:08:00,27.1,20.0,30.14,WNW,299,8.0,13.0,75,0.00,,,0.00,weatherlink.com 1.10,2013-03-20 07:08:00,
2013-03-20 02:23:00,26.8,20.0,30.13,NW,317,4.0,10.0,76,0.00,,,0.00,weatherlink.com 1.10,2013-03-20 07:23:00,
2013-03-20 02:38:00,26.7,20.0,30.13,WNW,302,5.0,11.0,76,0.00,,,0.00,weatherlink.com 1.10,2013-03-20 07:38:00,
2013-03-20 02:53:00,26.7,20.0,30.13,NW,312,6.0,12.0,76,0.00,,,0.00,weatherlink.com 1.10,2013-03-20 07:53:00,
2013-03-20 03:08:00,26.5,20.0,30.12,NW,318,5.0,14.0,76,0.00,,,0.00,weatherlink.com 1.10,2013-03-20 08:08:00,
2013-03-20 03:23:00,26.2,20.0,30.12,WNW,294,5.0,9.0,78,0.00,,,0.00,weatherlink.com 1.10,2013-03-20 08:23:00,
2013-03-20 03:38:00,26.4,20.0,30.12,NW,306,6.0,12.0,77,0.00,,,0.00,weatherlink.com 1.10,2013-03-20 08:38:00,
2013-03-20 03:53:00,26.0,20.0,30.12,NW,304,8.0,11.0,78,0.00,,,0.00,weatherlink.com 1.10,2013-03-20 08:53:00,
2013-03-20 04:09:00,25.6,20.0,30.12,WNW,301,7.0,17.0,78,0.00,,,0.00,weatherlink.com 1.10,2013-03-20 09:09:00,
2013-03-20 04:24:00,25.0,19.0,30.12,WNW,289,7.0,13.0,79,0.00,,,0.00,weatherlink.com 1.10,2013-03-20 09:24:00,
2013-03-20 04:39:00,24.4,19.0,30.12,WNW,286,9.0,20.0,79,0.00,,,0.00,weatherlink.com 1.10,2013-03-20 09:39:00,
2013-03-20 04:54:00,24.1,18.0,30.12,WNW,299,9.0,15.0,77,0.00,,,0.00,weatherlink.com 1.10,2013-03-20 09:54:00,
2013-03-20 05:09:00,23.3,17.0,30.13,WNW,287,8.0,23.0,76,0.00,,,0.00,weatherlink.com 1.10,2013-03-20 10:09:00,
2013-03-20 05:24:00,22.5,16.0,30.14,NW,317,9.0,21.0,76,0.00,,,0.00,weatherlink.com 1.10,2013-03-20 10:24:00,
2013-03-20 05:39:00,21.5,15.0,30.14,WNW,292,16.0,22.0,76,0.00,,,0.00,weatherlink.com 1.10,2013-03-20 10:39:00,
2013-03-20 05:54:00,20.2,13.0,30.15,NW,310,15.0,18.0,72,0.00,,,0.00,weatherlink.com 1.10,2013-03-20 10:54:00,
2013-03-20 06:09:00,19.1,12.0,30.15,NNW,329,8.0,21.0,73,0.00,,,0.00,weatherlink.com 1.10,2013-03-20 11:09:00,
2013-03-20 06:24:00,18.5,11.0,30.16,NNW,344,9.0,21.0,71,0.00,,,0.00,weatherlink.com 1.10,2013-03-20 11:24:00,
2013-03-20 06:39:00,17.9,11.0,30.16,NW,323,8.0,17.0,73,0.00,,,0.00,weatherlink.com 1.10,2013-03-20 11:39:00,
2013-03-20 06:54:00,17.3,11.0,30.17,WNW,294,11.0,21.0,76,0.00,,,0.00,weatherlink.com 1.10,2013-03-20 11:54:00,
2013-03-20 07:09:00,17.0,11.0,30.17,NW,320,7.0,17.0,78,0.00,,,0.00,weatherlink.com 1.10,2013-03-20 12:09:00,
2013-03-20 07:24:00,16.7,10.0,30.17,NW,305,11.0,19.0,75,0.00,,,0.00,weatherlink.com 1.10,2013-03-20 12:24:00,
2013-03-20 07:39:00,16.6,9.0,30.18,NW,313,9.0,22.0,72,0.00,,,0.00,weatherlink.com 1.10,2013-03-20 12:39:00,
2013-03-20 07:54:00,16.6,8.0,30.18,NW,313,14.0,23.0,70,0.00,,,0.00,weatherlink.com 1.10,2013-03-20 12:54:00,
2013-03-20 08:09:00,16.8,7.0,30.18,NNW,345,8.0,28.0,66,0.00,,,0.00,weatherlink.com 1.10,2013-03-20 13:09:00,
2013-03-20 08:24:00,16.8,7.0,30.18,WNW,294,16.0,23.0,66,0.00,,,0.00,weatherlink.com 1.10,2013-03-20 13:24:00,
2013-03-20 08:39:00,17.3,7.0,30.18,NNW,338,7.0,22.0,63,0.00,,,0.00,weatherlink.com 1.10,2013-03-20 13:39:00,
2013-03-20 08:54:00,17.2,5.0,30.19,NW,304,19.0,30.0,58,0.00,,,0.00,weatherlink.com 1.10,2013-03-20 13:54:00,
2013-03-20 09:09:00,17.6,7.0,30.19,WNW,302,12.0,24.0,62,0.00,,,0.00,weatherlink.com 1.10,2013-03-20 14:09:00,
2013-03-20 09:25:00,18.0,7.0,30.18,NW,311,14.0,23.0,62,0.00,,,0.00,weatherlink.com 1.10,2013-03-20 14:25:00,
2013-03-20 09:39:00,18.5,7.0,30.18,WNW,286,17.0,21.0,61,0.00,,,0.00,weatherlink.com 1.10,2013-03-20 14:39:00,
2013-03-20 09:55:00,18.9,7.0,30.18,NW,304,15.0,22.0,60,0.00,,,0.00,weatherlink.com 1.10,2013-03-20 14:55:00,
2013-03-20 10:10:00,20.0,7.0,30.19,NW,309,12.0,23.0,58,0.00,,,0.00,weatherlink.com 1.10,2013-03-20 15:10:00,
2013-03-20 10:25:00,19.9,7.0,30.18,WNW,289,14.0,24.0,58,0.00,,,0.00,weatherlink.com 1.10,2013-03-20 15:25:00,
2013-03-20 10:40:00,20.4,7.0,30.18,WNW,303,18.0,25.0,57,0.00,,,0.00,weatherlink.com 1.10,2013-03-20 15:40:00,
2013-03-20 10:55:00,20.9,7.0,30.18,NW,309,8.0,26.0,55,0.00,,,0.00,weatherlink.com 1.10,2013-03-20 15:55:00,
2013-03-20 11:10:00,21.4,6.0,30.18,NW,318,8.0,22.0,51,0.00,,,0.00,weatherlink.com 1.10,2013-03-20 16:10:00,
2013-03-20 11:25:00,21.8,7.0,30.18,WSW,250,7.0,22.0,52,0.00,,,0.00,weatherlink.com 1.10,2013-03-20 16:25:00,
2013-03-20 11:40:00,21.9,5.0,30.18,WNW,291,17.0,25.0,48,0.00,,,0.00,weatherlink.com 1.10,2013-03-20 16:40:00,
2013-03-20 11:55:00,21.7,5.0,30.18,NW,326,7.0,28.0,49,0.00,,,0.00,weatherlink.com 1.10,2013-03-20 16:55:00,
2013-03-20 12:10:00,23.0,7.0,30.18,WNW,290,13.0,22.0,50,0.00,,,0.00,weatherlink.com 1.10,2013-03-20 17:10:00,
2013-03-20 12:25:00,23.9,7.0,30.17,NW,326,11.0,17.0,48,0.00,,,0.00,weatherlink.com 1.10,2013-03-20 17:25:00,
2013-03-20 12:40:00,23.3,4.0,30.17,WNW,301,9.0,27.0,44,0.00,,,0.00,weatherlink.com 1.10,2013-03-20 17:40:00,
2013-03-20 12:55:00,24.5,6.0,30.17,WNW,302,9.0,21.0,46,0.00,,,0.00,weatherlink.com 1.10,2013-03-20 17:55:00,
2013-03-20 13:07:00,-999.0,-99.9,0.00,North,-999,-999.0,-999.0,-999,0.00,,,0.00,weatherlink.com 1.10,2013-03-20 18:07:00,
2013-03-20 13:22:00,-999.0,-99.9,0.00,North,-999,-999.0,-999.0,-999,0.00,,,0.00,weatherlink.com 1.10,2013-03-20 18:22:00,
2013-03-20 13:37:00,25.7,7.0,30.14,WNW,290,14.0,27.0,45,0.00,,,0.00,weatherlink.com 1.10,2013-03-20 18:37:00,
2013-03-20 13:52:00,25.6,7.0,30.14,West,262,14.0,22.0,45,0.00,,,0.00,weatherlink.com 1.10,2013-03-20 18:52:00,
2013-03-20 14:07:00,25.9,6.0,30.13,West,277,18.0,25.0,42,0.00,,,0.00,weatherlink.com 1.10,2013-03-20 19:07:00,
2013-03-20 14:22:00,26.0,8.0,30.12,WNW,293,10.0,26.0,47,0.00,,,0.00,weatherlink.com 1.10,2013-03-20 19:22:00,
2013-03-20 14:37:00,26.2,6.0,30.12,WNW,292,9.0,28.0,43,0.00,,,0.00,weatherlink.com 1.10,2013-03-20 19:37:00,
2013-03-20 14:57:00,27.0,8.0,30.11,NW,307,12.0,27.0,44,0.00,,,0.00,weatherlink.com 1.10,2013-03-20 19:57:00,
2013-03-20 15:07:00,27.0,7.0,30.11,WNW,295,15.0,27.0,43,0.00,,,0.00,weatherlink.com 1.10,2013-03-20 20:07:00,
2013-03-20 15:22:00,28.1,8.0,30.10,NW,306,22.0,26.0,43,0.00,,,0.00,weatherlink.com 1.10,2013-03-20 20:22:00,
2013-03-20 15:37:00,27.0,9.0,30.10,WSW,255,10.0,25.0,46,0.00,,,0.00,weatherlink.com 1.10,2013-03-20 20:37:00,
2013-03-20 15:52:00,27.6,9.0,30.10,NW,321,16.0,22.0,45,0.00,,,0.00,weatherlink.com 1.10,2013-03-20 20:52:00,
2013-03-20 16:07:00,27.6,7.0,30.10,WNW,293,14.0,22.0,42,0.00,,,0.00,weatherlink.com 1.10,2013-03-20 21:07:00,
2013-03-20 16:22:00,26.8,8.0,30.09,NW,309,17.0,31.0,45,0.00,,,0.00,weatherlink.com 1.10,2013-03-20 21:22:00,
2013-03-20 16:52:00,27.9,8.0,30.09,NW,321,21.0,24.0,44,0.00,,,0.00,weatherlink.com 1.10,2013-03-20 21:52:00,
2013-03-20 17:07:00,27.1,8.0,30.10,NW,304,24.0,26.0,44,0.00,,,0.00,weatherlink.com 1.10,2013-03-20 22:07:00,
2013-03-20 17:22:00,27.6,8.0,30.10,NW,321,9.0,26.0,43,0.00,,,0.00,weatherlink.com 1.10,2013-03-20 22:22:00,
2013-03-20 17:37:00,27.2,9.0,30.10,NW,324,23.0,26.0,46,0.00,,,0.00,weatherlink.com 1.10,2013-03-20 22:37:00,
2013-03-20 17:52:00,26.3,9.0,30.10,WNW,299,8.0,27.0,48,0.00,,,0.00,weatherlink.com 1.10,2013-03-20 22:52:00,
2013-03-20 18:07:00,26.1,8.0,30.10,WNW,287,9.0,24.0,47,0.00,,,0.00,weatherlink.com 1.10,2013-03-20 23:07:00,
2013-03-20 18:22:00,25.6,9.0,30.11,NW,317,18.0,26.0,49,0.00,,,0.00,weatherlink.com 1.10,2013-03-20 23:22:00,
2013-03-20 18:37:00,25.0,9.0,30.11,NW,317,15.0,25.0,51,0.00,,,0.00,weatherlink.com 1.10,2013-03-20 23:37:00,
2013-03-20 18:52:00,24.7,11.0,30.11,NNW,329,6.0,27.0,55,0.00,,,0.00,weatherlink.com 1.10,2013-03-20 23:52:00,
2013-03-20 19:08:00,24.0,11.0,30.11,WNW,300,12.0,24.0,57,0.00,,,0.00,weatherlink.com 1.10,2013-03-21 00:08:00,
2013-03-20 19:23:00,23.8,11.0,30.11,WNW,294,13.0,20.0,58,0.00,,,0.00,weatherlink.com 1.10,2013-03-21 00:23:00,
2013-03-20 19:38:00,23.5,10.0,30.11,NW,323,14.0,22.0,57,0.00,,,0.00,weatherlink.com 1.10,2013-03-21 00:38:00,
2013-03-20 19:53:00,23.1,10.0,30.11,NW,307,7.0,19.0,58,0.00,,,0.00,weatherlink.com 1.10,2013-03-21 00:53:00,
2013-03-20 20:08:00,22.8,11.0,30.11,NW,311,10.0,17.0,61,0.00,,,0.00,weatherlink.com 1.10,2013-03-21 01:08:00,
2013-03-20 20:23:00,22.5,11.0,30.11,WNW,289,9.0,19.0,61,0.00,,,0.00,weatherlink.com 1.10,2013-03-21 01:23:00,
2013-03-20 20:38:00,22.2,11.0,30.12,NW,311,15.0,21.0,63,0.00,,,0.00,weatherlink.com 1.10,2013-03-21 01:38:00,
2013-03-20 20:53:00,22.1,11.0,30.12,NW,306,6.0,18.0,63,0.00,,,0.00,weatherlink.com 1.10,2013-03-21 01:53:00,
2013-03-20 21:09:00,21.8,11.0,30.12,WNW,302,20.0,20.0,64,0.00,,,0.00,weatherlink.com 1.10,2013-03-21 02:09:00,
2013-03-20 21:38:00,21.9,10.0,30.11,WNW,300,18.0,27.0,61,0.00,,,0.00,weatherlink.com 1.10,2013-03-21 02:38:00,
2013-03-20 21:53:00,21.9,10.0,30.11,WNW,302,6.0,23.0,61,0.00,,,0.00,weatherlink.com 1.10,2013-03-21 02:53:00,
2013-03-20 22:08:00,21.8,11.0,30.11,North,355,4.0,21.0,62,0.00,,,0.00,weatherlink.com 1.10,2013-03-21 03:08:00,
2013-03-20 22:23:00,21.7,11.0,30.11,WNW,299,6.0,17.0,63,0.00,,,0.00,weatherlink.com 1.10,2013-03-21 03:23:00,
2013-03-20 22:38:00,21.6,11.0,30.11,NNW,337,11.0,17.0,63,0.00,,,0.00,weatherlink.com 1.10,2013-03-21 03:38:00,
2013-03-20 22:53:00,21.5,11.0,30.11,NW,321,9.0,20.0,63,0.00,,,0.00,weatherlink.com 1.10,2013-03-21 03:53:00,
2013-03-20 23:08:00,21.2,12.0,30.11,WNW,286,11.0,18.0,67,0.00,,,0.00,weatherlink.com 1.10,2013-03-21 04:08:00,
2013-03-20 23:23:00,20.8,13.0,30.11,NNW,329,7.0,18.0,72,0.00,,,0.00,weatherlink.com 1.10,2013-03-21 04:23:00,
2013-03-20 23:38:00,20.6,14.0,30.11,NNW,342,5.0,15.0,74,0.00,,,0.00,weatherlink.com 1.10,2013-03-21 04:38:00,
2013-03-20 23:53:00,20.3,14.0,30.10,NNW,332,11.0,16.0,77,0.00,,,0.00,weatherlink.com 1.10,2013-03-21 04:53:00,